Regional Weather Roundup
Issued by NWS

Home | Current Version | Previous Version | Graphics & Text | Print | Product List | Glossary On
Versions: 1 2 3 4 5 6 7 8 9 10 11 12 13 14 15 16 17 18 19 20 21 22 23 24 25 26 27 28 29 30 31 32 33 34 35 36 37 38 39 40 41 42 43 44 45 46 47 48 49 50
852
ASUS43 KLSX 122257
RWRMO

WEATHER SUMMARY FOR MISSOURI
NATIONAL WEATHER SERVICE SPRINGFIELD MO
500 PM CST FRI FEB 12 2016

NOTE: "FAIR" INDICATES FEW OR NO CLOUDS BELOW 12,000 FEET WITH NO
       SIGNIFICANT WEATHER AND/OR OBSTRUCTIONS TO VISIBILITY.
       CURRENT SKY AND/OR WEATHER CONDITIONS ARE NOT AVAILABLE FOR
       CHILLICOTHE AND FARMINGTON.

MOZ001>031-035>038-043-044-053-054-130000-
...NORTHERN AND WESTERN MISSOURI...

CITY           SKY/WX    TMP DP  RH WIND       PRES   REMARKS
KANSAS CTY INT CLEAR     31  13  47 N16       30.47R WCI  20
LEE`S SUMMIT   CLEAR     33  12  41 N15       30.46R WCI  23
ST JOSEPH      CLEAR     29   8  41 N17       30.52R WCI  17
CHILLICOTHE      N/A     28   6  39 N13G20    30.51R WCI  17

$$
MOZ066>068-077>081-088>096-101>105-130000-
...SOUTHWEST MISSOURI...

CITY           SKY/WX    TMP DP  RH WIND       PRES   REMARKS
SPRINGFIELD    CLEAR     41  22  46 N15G23    30.37R
JOPLIN         CLEAR     43  25  49 N9        30.41R

$$
MOZ032>034-039>042-045>050-055>058-069>072-130000-
...CENTRAL MISSOURI...

CITY           SKY/WX    TMP DP  RH WIND       PRES   REMARKS
COLUMBIA       NOT AVBL
JEFFERSON CITY CLEAR     34  12  40 NW14      30.43R WCI  25
ROLLA          CLEAR     34  16  47 NW16      30.36R WCI  24
SEDALIA        CLEAR     35  12  38 N17       30.45R WCI  25

$$
MOZ051-052-059>065-130000-
...EAST CENTRAL MISSOURI...

CITY           SKY/WX    TMP DP  RH WIND       PRES   REMARKS
ST LOUIS INTL  PTCLDY    30  16  56 NW14      30.38R WCI  19

$$
MOZ072>076-082>087-097>100-106>115-130000-
...SOUTH CENTRAL AND SOUTHEAST MISSOURI...

CITY           SKY/WX    TMP DP  RH WIND       PRES   REMARKS
CAPE GIRARDEAU CLEAR     38  23  55 N12       30.33R
POPLAR BLUFF   PTCLDY    45  24  43 N13       30.31R
WEST PLAINS    CLEAR     44  20  38 N9        30.33R

$$



USA.gov is the U.S. government's official web portal to all federal, state and local government web resources and services.